Dewpoint
51 50 50 50 50 51 51 51 52 52 52 51 51 51 49 49 49 49 50 54 56 57 54 51 50 52 48 40 36 44 50 47 41 39 37 36 36 35 31 31 30 29 29 28 27 27 27
51 50 50 49 49 51 52 52 51 51 52 52 51 51 50 49 49 49 50 53 55 55 53 50 51 53 45 37 35 39 41 38 35 36 37 37 37 36 35 34 33 32 31 32 33 32 28
51 51 50 49 49 48 50 52 52 51 51 51 51 51 50 49 49 49 50 53 56 55 52 51 53 48 42 37 35 35 36 35 38 38 37 40 41 39 38 34 34 35 31 33 33 31 30
51 50 50 49 49 48 48 50 51 52 51 51 51 51 50 50 49 49 51 55 55 53 52 52 53 47 39 41 40 36 37 37 38 40 41 41 43 40 38 38 34 32 33 30 29 29 30
52 52 50 50 49 48 48 49 50 50 51 50 50 50 50 49 48 48 54 55 53 51 51 51 47 45 36 43 37 37 37 34 37 43 42 40 43 40 38 35 30 30 26 29 29 31 31
53 53 52 51 51 49 47 49 49 50 49 50 49 49 50 49 48 48 52 52 52 52 51 48 46 40 38 35 36 34 35 35 37 41 41 41 39 36 37 34 24 27 28 28 27 33 37
55 55 54 53 50 50 48 49 48 48 52 52 50 49 49 49 48 51 49 48 43 41 45 38 37 35 35 37 38 36 34 37 37 36 34 39 36 30 29 31 32 29 30 29 27 32 37
55 55 52 49 50 48 48 47 47 48 49 49 49 49 48 47 51 52 49 44 41 45 38 41 39 37 38 39 33 34 36 34 35 32 35 36 30 31 33 31 34 34 31 28 29 36 36
56 51 50 49 48 47 48 47 47 48 47 48 49 49 48 48 50 49 45 44 46 42 37 37 37 38 37 38 32 32 35 34 31 31 29 33 31 31 35 34 35 31 29 27 32 36 35
53 51 47 48 48 48 47 48 49 48 47 47 46 48 49 47 46 47 44 48 48 46 34 33 33 35 37 38 33 32 35 35 30 28 27 30 34 32 33 34 34 29 32 32 36 34 31
52 48 48 48 47 47 48 48 48 50 48 48 47 48 48 47 45 43 46 48 48 43 23 36 35 40 38 34 31 31 38 36 29 27 30 29 33 35 33 34 36 31 35 35 35 34 32
48 48 48 47 48 48 48 49 47 47 46 47 48 47 47 43 45 46 49 46 43 32 23 33 36 35 34 34 26 32 34 37 36 32 31 31 33 37 36 37 37 37 35 34 33 33 29
46 48 48 47 48 47 47 47 47 47 46 47 48 47 45 42 42 48 46 42 31 26 35 30 31 32 33 29 31 27 26 31 31 30 30 31 32 36 39 36 38 37 35 28 27 28 27
46 48 48 47 47 47 47 47 47 46 46 46 47 46 44 41 49 47 43 35 26 31 34 32 30 30 33 29 30 28 28 27 30 29 32 29 28 35 38 37 35 37 35 29 24 25 30
47 47 48 47 46 46 47 47 46 46 46 45 45 46 44 44 48 46 39 29 29 33 33 29 29 26 25 27 28 26 26 29 31 32 33 31 32 37 38 38 38 36 33 30 31 31 29
47 47 47 47 47 46 45 46 46 46 46 45 47 43 42 45 46 43 35 32 33 34 33 30 28 26 21 23 24 25 25 31 33 34 36 36 31 35 37 39 39 37 35 28 32 27 25
47 46 46 46 46 46 46 46 46 45 44 46 44 37 44 47 45 39 31 33 36 33 32 33 32 24 20 22 28 33 29 34 35 36 38 37 33 35 37 35 32 33 29 28 26 25 22
47 46 45 46 47 46 45 46 45 44 45 45 41 33 45 47 35 36 34 36 36 33 33 33 33 28 25 25 28 29 31 35 38 39 36 37 36 31 31 33 33 33 28 25 25 23 26
46 46 45 45 46 48 47 45 45 45 44 42 38 37 45 45 31 32 36 34 35 33 33 34 32 30 30 30 29 31 32 37 36 35 32 32 30 28 27 29 32 30 27 28 31 33 24
46 46 45 46 47 49 49 49 44 45 44 43 39 34 39 41 38 32 33 32 31 36 34 34 32 31 31 29 31 30 31 37 37 35 38 37 30 29 25 27 31 29 27 27 30 26 24
46 46 46 47 48 49 50 50 48 45 44 43 40 35 36 34 35 33 35 32 27 31 35 35 32 31 29 28 29 31 32 32 34 38 34 33 28 25 27 29 30 29 28 26 25 26 25
46 46 47 48 50 51 51 51 51 46 45 42 37 35 36 35 35 33 33 31 28 32 35 31 31 30 32 31 31 29 31 31 30 30 30 32 28 27 25 26 28 26 28 29 29 26 26
46 46 47 49 51 53 51 51 51 48 46 41 42 40 35 36 33 31 29 30 31 34 35 34 33 33 33 34 33 33 32 32 32 31 29 30 30 28 23 27 26 23 25 28 29 30 27
46 46 48 50 53 53 50 52 52 48 47 44 43 40 36 32 32 29 30 32 32 34 34 35 35 34 35 34 34 33 32 32 32 32 31 29 29 29 25 24 17 26 27 27 28 29 30
46 46 48 50 53 51 51 51 50 48 48 46 44 41 37 31 31 31 30 33 33 34 35 36 37 36 36 34 32 28 29 30 30 32 31 31 30 27 24 21 21 24 26 26 27 27 29
45 46 48 51 52 51 51 49 48 47 49 45 41 41 40 33 30 32 30 32 29 32 34 36 37 37 36 34 29 24 23 25 25 30 32 30 29 27 25 21 18 24 26 26 26 22 31
45 46 48 51 52 52 51 50 49 49 48 44 40 41 40 32 32 32 31 31 34 33 34 35 34 35 35 33 28 26 23 26 23 23 25 27 26 24 25 22 23 26 27 26 19 25 31
45 45 48 50 50 52 51 48 47 43 43 42 39 39 40 34 33 33 33 34 34 35 33 36 34 34 34 31 29 25 22 25 25 25 26 23 22 24 24 21 18 27 26 22 29 32 33
45 45 47 49 51 50 48 47 46 43 43 44 39 37 38 36 33 33 33 33 33 33 35 36 34 35 37 33 31 28 25 24 22 19 29 23 25 25 24 25 27 28 28 29 32 33 34
Lifted_Index
11 11 11 10 10 9 8 8 8 7 7 7 7 7 7 8 7 7 6 4 2 2 3 4 5 5 4 4 5 6 6 7 8 8 9 9 9 9 9 9 9 10 10 11 11 12 12
11 11 10 10 9 9 8 7 7 7 6 6 6 7 7 7 7 7 6 4 3 2 2 3 4 4 3 3 5 6 7 7 8 8 8 8 9 9 9 9 9 10 10 11 11 11 12
11 10 10 9 9 8 8 7 6 6 5 5 5 6 6 7 7 7 6 4 2 2 2 3 4 3 2 3 5 7 7 8 8 8 8 8 8 8 9 8 8 8 9 9 9 9 9
10 9 9 9 8 8 7 6 5 4 4 4 4 4 5 5 6 6 4 3 2 2 3 3 3 3 2 3 5 6 7 7 7 7 7 7 7 7 7 7 6 6 6 7 6 6 6
8 8 8 8 7 6 5 4 3 3 2 2 3 3 3 4 5 5 3 2 2 2 3 3 3 3 3 4 5 6 7 7 7 6 6 6 6 6 6 5 4 4 4 4 3 3 3
7 6 6 6 5 5 4 3 2 1 1 1 1 2 2 2 3 3 3 3 3 3 3 3 3 3 3 4 5 6 7 7 6 6 6 6 5 4 4 3 3 2 2 2 2 2 2
5 4 4 4 4 4 3 2 1 0 0 0 0 1 1 1 2 2 2 3 3 3 3 3 3 3 3 4 5 6 6 6 6 5 5 4 4 3 3 3 3 2 2 2 2 1 1
3 3 3 3 3 3 2 1 0 0 0 0 -0 0 0 0 0 1 2 3 3 2 2 2 3 3 4 4 5 6 6 6 5 5 4 3 2 2 2 2 2 2 2 2 2 1 1
3 3 3 3 2 2 1 -0 -0 -0 0 0 0 0 0 0 -0 0 1 2 2 2 2 2 3 3 4 5 5 6 5 5 4 4 3 2 2 2 2 1 2 2 2 2 1 1 1
3 3 3 3 2 1 0 -0 -0 -0 0 1 1 1 1 0 0 0 1 2 2 2 2 2 3 4 4 4 5 5 5 4 3 3 2 2 2 2 1 1 1 1 1 1 1 1 1
4 4 3 3 2 1 1 0 0 0 1 1 1 1 1 1 0 0 1 2 3 2 2 2 3 4 4 4 5 5 4 2 2 2 2 2 1 1 1 1 1 1 1 1 1 1 1
5 4 3 3 2 2 1 1 1 1 1 1 1 1 1 0 0 0 1 2 3 2 2 3 4 4 4 4 4 4 3 2 1 1 1 2 1 1 1 1 1 1 1 1 1 1 1
5 4 3 2 2 2 1 0 0 1 1 1 1 1 1 1 0 1 2 2 2 2 2 3 3 3 3 3 3 3 2 2 1 1 1 1 1 1 1 1 1 2 1 1 1 0 0
6 5 4 3 2 2 1 0 -0 0 0 0 1 1 1 1 1 1 2 2 2 2 2 3 3 3 3 2 2 2 2 1 1 1 1 1 1 1 1 1 1 1 1 1 0 0 0
9 8 6 5 4 3 2 1 0 0 0 1 1 1 2 2 2 3 3 2 2 2 3 2 2 2 2 2 2 2 1 1 1 1 1 1 1 1 1 2 2 1 1 1 1 0 0
11 11 10 8 7 7 6 4 3 3 3 3 2 3 3 3 4 4 3 3 3 3 3 2 2 2 2 2 2 2 1 1 1 1 1 1 1 1 1 2 2 1 1 1 1 1 0
13 12 12 11 10 10 9 8 7 7 6 5 5 5 5 5 5 5 4 4 4 3 3 2 2 2 2 2 2 1 1 1 1 1 1 1 1 1 1 2 2 2 2 1 1 1 1
14 13 13 12 11 10 10 9 9 9 8 7 7 7 7 6 6 5 4 4 3 3 3 2 1 1 2 2 1 1 0 1 1 1 1 1 1 1 1 2 2 2 2 2 2 1 1
15 14 13 12 11 10 10 9 9 9 9 8 8 8 7 6 5 5 4 4 3 3 2 2 1 1 1 1 1 1 0 1 1 1 2 2 1 1 1 2 2 3 3 3 2 2 2
16 15 14 13 11 10 9 9 9 9 9 9 8 7 7 6 5 4 4 4 4 3 2 2 2 2 1 1 1 0 1 1 1 2 2 2 2 1 2 2 3 3 4 3 3 2 2
16 16 14 13 12 10 10 9 9 10 10 9 8 7 7 6 5 5 5 4 4 3 3 2 2 2 2 1 1 1 1 1 1 2 2 2 2 2 3 3 3 3 4 3 3 3 2
16 16 14 13 12 11 10 10 10 11 11 10 9 8 7 6 6 5 5 5 5 4 3 3 2 2 2 2 1 1 1 2 2 2 2 2 2 3 3 3 3 3 3 3 3 3 3
16 15 14 14 13 12 12 12 12 13 13 12 10 10 9 8 7 6 6 6 5 5 4 3 3 3 3 3 2 2 2 2 2 3 3 3 2 2 3 3 3 3 3 3 3 3 3
16 15 14 14 13 13 13 13 13 14 14 13 12 11 10 9 8 8 8 7 6 5 5 4 3 3 3 3 3 3 3 3 3 3 3 3 3 2 2 2 2 3 4 4 3 3 3
15 14 14 14 14 14 14 14 14 15 14 13 13 12 11 11 10 10 9 9 8 7 6 5 4 4 4 4 3 3 3 3 3 3 3 3 3 3 2 2 2 3 4 4 4 4 4
15 14 14 14 14 14 15 15 15 15 15 14 14 13 13 13 12 11 11 10 10 9 8 7 6 6 5 5 5 4 4 4 4 4 5 5 4 4 3 3 3 4 5 5 5 4 5
16 14 13 14 14 14 15 15 15 16 15 15 15 14 14 14 13 12 12 11 11 10 9 9 8 8 7 7 7 6 6 6 6 6 6 6 6 5 5 4 4 6 7 6 6 6 6
16 14 13 14 14 14 15 15 15 16 15 15 15 15 15 14 14 13 13 12 11 10 9 9 9 9 8 8 8 8 8 8 8 8 8 7 7 7 6 5 6 7 8 8 7 7 8
17 15 13 13 14 14 15 15 15 15 15 15 15 16 15 15 14 14 13 13 12 10 10 9 9 9 9 9 9 9 9 9 8 7 8 7 7 7 7 6 7 8 9 9 9 9 9